When you browse on this site, cookies collect data to enhance your experience and personalize the content and advertising you see.
Visit our Privacy Policy to learn more. By continuing to use the site, you agree to this use of cookies and data.
  • In Österreich
  • Länderverzeichnis
  • Für 7 Tage
  • Wassertemperatur
  • Wetterkarte
  • News
  • Widgets
  • user-avatar
    Anmelden

    Stündliche Wetter Ayent

    Heute, 19 Januar, Sonntag

    Zeit Temperatur Niederschläge Wind Luftdruck Luftfeuchtigkeit
    00:00 -13°C° 0 mm 1 m/S 577 mmHg 59%
    01:00 -13°C° 0 mm 1 m/S 577 mmHg 60%
    02:00 -13°C° 0 mm 1 m/S 577 mmHg 61%
    03:00 -13°C° 0 mm 1 m/S 577 mmHg 61%
    04:00 -13°C° 0 mm 1 m/S 577 mmHg 64%
    05:00 -13°C° 0 mm 1 m/S 578 mmHg 66%
    06:00 -14°C° 0 mm 1 m/S 578 mmHg 68%
    07:00 -13°C° 0 mm 1 m/S 578 mmHg 71%
    08:00 -14°C° 0 mm 2 m/S 579 mmHg 73%
    09:00 -13°C° 0 mm 2 m/S 579 mmHg 75%
    10:00 -13°C° 0 mm 2 m/S 580 mmHg 73%
    11:00 -12°C° 0 mm 2 m/S 581 mmHg 72%
    12:00 -10°C° 0 mm 2 m/S 581 mmHg 70%
    13:00 -10°C° 0 mm 2 m/S 581 mmHg 74%
    14:00 -12°C° 0 mm 2 m/S 581 mmHg 78%
    15:00 -12°C° 0 mm 2 m/S 581 mmHg 81%
    16:00 -13°C° 0 mm 2 m/S 581 mmHg 82%
    17:00 -15°C° 0 mm 2 m/S 581 mmHg 83%
    18:00 -16°C° 0 mm 2 m/S 580 mmHg 84%
    19:00 -16°C° 0 mm 2 m/S 580 mmHg 80%
    20:00 -16°C° 0 mm 2 m/S 581 mmHg 77%
    21:00 -17°C° 0 mm 2 m/S 581 mmHg 73%
    22:00 -17°C° 0 mm 2 m/S 581 mmHg 69%
    23:00 -17°C° 0 mm 2 m/S 581 mmHg 65%

    Morgen, 20 Januar, Montag

    Zeit Temperatur Niederschläge Wind Luftdruck Luftfeuchtigkeit
    00:00 -17°C° 0 mm 2 m/S 581 mmHg 61%
    01:00 -18°C° 0 mm 3 m/S 581 mmHg 60%
    02:00 -18°C° 0 mm 3 m/S 581 mmHg 59%
    03:00 -18°C° 0 mm 3 m/S 581 mmHg 58%
    04:00 -18°C° 0 mm 3 m/S 581 mmHg 60%
    05:00 -18°C° 0 mm 3 m/S 582 mmHg 62%
    06:00 -18°C° 0 mm 3 m/S 582 mmHg 63%
    07:00 -17°C° 0 mm 3 m/S 583 mmHg 64%
    08:00 -16°C° 0 mm 3 m/S 584 mmHg 65%
    09:00 -14°C° 0 mm 3 m/S 585 mmHg 66%
    10:00 -13°C° 0 mm 3 m/S 585 mmHg 63%
    11:00 -12°C° 0 mm 3 m/S 586 mmHg 61%
    12:00 -9°C° 0 mm 3 m/S 586 mmHg 58%
    13:00 -9°C° 0 mm 3 m/S 586 mmHg 61%
    14:00 -10°C° 0 mm 3 m/S 586 mmHg 64%
    15:00 -10°C° 0 mm 3 m/S 586 mmHg 67%
    16:00 -12°C° 0 mm 3 m/S 585 mmHg 65%
    17:00 -14°C° 0 mm 3 m/S 585 mmHg 64%
    18:00 -16°C° 0 mm 4 m/S 584 mmHg 62%
    19:00 -16°C° 0 mm 4 m/S 585 mmHg 63%
    20:00 -16°C° 0 mm 4 m/S 585 mmHg 63%
    21:00 -16°C° 0 mm 4 m/S 585 mmHg 64%
    22:00 -16°C° 0 mm 4 m/S 586 mmHg 65%
    23:00 -15°C° 0 mm 4 m/S 586 mmHg 66%

    übermorgen, 21 Januar, Dienstag

    Zeit Temperatur Niederschläge Wind Luftdruck Luftfeuchtigkeit
    00:00 -15°C° 0 mm 4 m/S 586 mmHg 67%
    01:00 -15°C° 0 mm 4 m/S 586 mmHg 69%
    02:00 -14°C° 0 mm 3 m/S 586 mmHg 70%
    03:00 -13°C° 0 mm 3 m/S 586 mmHg 71%
    04:00 -13°C° 0 mm 3 m/S 586 mmHg 73%
    05:00 -13°C° 0 mm 3 m/S 586 mmHg 74%
    06:00 -13°C° 0 mm 3 m/S 587 mmHg 76%
    07:00 -10°C° 0 mm 3 m/S 587 mmHg 76%
    08:00 -9°C° 0 mm 3 m/S 588 mmHg 76%
    09:00 -8°C° 0 mm 3 m/S 588 mmHg 76%
    10:00 -7°C° 0 mm 3 m/S 588 mmHg 77%
    11:00 -5°C° 0 mm 2 m/S 589 mmHg 77%
    12:00 -4°C° 0 mm 2 m/S 589 mmHg 77%
    13:00 -4°C° 0 mm 2 m/S 588 mmHg 78%
    14:00 -4°C° 0 mm 2 m/S 588 mmHg 79%
    15:00 -4°C° 0 mm 2 m/S 588 mmHg 80%
    16:00 -5°C° 0 mm 2 m/S 587 mmHg 78%
    17:00 -6°C° 0 mm 2 m/S 587 mmHg 76%
    18:00 -8°C° 0 mm 3 m/S 587 mmHg 73%
    19:00 -8°C° 0 mm 3 m/S 586 mmHg 72%
    20:00 -8°C° 0 mm 3 m/S 586 mmHg 70%
    21:00 -8°C° 0 mm 3 m/S 586 mmHg 68%
    22:00 -8°C° 0 mm 3 m/S 586 mmHg 66%
    23:00 -8°C° 0 mm 3 m/S 586 mmHg 65%

    22 Januar, Mittwoch

    Zeit Temperatur Niederschläge Wind Luftdruck Luftfeuchtigkeit
    00:00 -8°C° 0 mm 3 m/S 586 mmHg 63%
    01:00 -8°C° 0 mm 3 m/S 585 mmHg 62%
    02:00 -8°C° 0 mm 3 m/S 585 mmHg 61%
    03:00 -8°C° 0 mm 3 m/S 585 mmHg 60%
    04:00 -8°C° 0 mm 3 m/S 585 mmHg 58%
    05:00 -8°C° 0 mm 3 m/S 585 mmHg 57%
    06:00 -8°C° 0 mm 3 m/S 584 mmHg 55%
    07:00 -7°C° 0 mm 3 m/S 585 mmHg 56%
    08:00 -7°C° 0 mm 3 m/S 585 mmHg 56%
    09:00 -6°C° 0 mm 3 m/S 586 mmHg 57%
    10:00 -3°C° 0 mm 2 m/S 586 mmHg 60%
    11:00 -2°C° 0 mm 2 m/S 586 mmHg 63%
    12:00 -1°C° 0 mm 2 m/S 586 mmHg 66%
    13:00 -2°C° 0 mm 2 m/S 586 mmHg 63%
    14:00 -2°C° 0 mm 2 m/S 585 mmHg 60%
    15:00 -2°C° 0 mm 2 m/S 585 mmHg 58%
    16:00 -3°C° 0 mm 2 m/S 584 mmHg 53%
    17:00 -4°C° 0 mm 2 m/S 584 mmHg 49%
    18:00 -5°C° 0 mm 2 m/S 584 mmHg 45%
    19:00 -5°C° 0 mm 2 m/S 584 mmHg 44%
    20:00 -5°C° 0 mm 2 m/S 584 mmHg 43%
    21:00 -5°C° 0 mm 2 m/S 584 mmHg 42%
    22:00 -5°C° 0 mm 2 m/S 583 mmHg 42%
    23:00 -5°C° 0 mm 2 m/S 583 mmHg 43%

    23 Januar, Donnerstag

    Zeit Temperatur Niederschläge Wind Luftdruck Luftfeuchtigkeit
    00:00 -5°C° 0 mm 2 m/S 583 mmHg 43%
    01:00 -5°C° 0 mm 2 m/S 583 mmHg 43%
    02:00 -5°C° 0 mm 2 m/S 583 mmHg 44%
    03:00 -6°C° 0 mm 2 m/S 582 mmHg 44%
    04:00 -6°C° 0 mm 2 m/S 582 mmHg 44%
    05:00 -6°C° 0 mm 2 m/S 582 mmHg 44%
    06:00 -6°C° 0 mm 2 m/S 582 mmHg 45%
    07:00 -5°C° 0 mm 2 m/S 583 mmHg 47%
    08:00 -4°C° 0 mm 2 m/S 583 mmHg 49%
    09:00 -3°C° 0 mm 2 m/S 584 mmHg 51%
    10:00 -2°C° 0 mm 2 m/S 584 mmHg 57%
    11:00 +1°C° 0 mm 1 m/S 584 mmHg 63%
    12:00 +2°C° 0 mm 1 m/S 585 mmHg 69%
    13:00 +1°C° 0 mm 1 m/S 584 mmHg 67%
    14:00 0°C° 0 mm 1 m/S 584 mmHg 65%
    15:00 0°C° 0 mm 1 m/S 583 mmHg 63%
    16:00 -3°C° 0 mm 2 m/S 583 mmHg 60%
    17:00 -5°C° 0 mm 2 m/S 582 mmHg 57%
    18:00 -6°C° 0 mm 2 m/S 582 mmHg 54%
    19:00 -6°C° 0 mm 2 m/S 582 mmHg 54%
    20:00 -7°C° 0 mm 3 m/S 582 mmHg 55%
    21:00 -7°C° 0 mm 3 m/S 582 mmHg 56%
    22:00 -7°C° 0 mm 3 m/S 582 mmHg 56%
    23:00 -7°C° 0 mm 3 m/S 582 mmHg 56%

    24 Januar, Freitag

    Zeit Temperatur Niederschläge Wind Luftdruck Luftfeuchtigkeit
    00:00 -6°C° 0 mm 2 m/S 581 mmHg 57%
    01:00 -6°C° 0 mm 2 m/S 581 mmHg 56%
    02:00 -7°C° 0 mm 3 m/S 581 mmHg 56%
    03:00 -7°C° 0 mm 3 m/S 580 mmHg 56%
    04:00 -7°C° 0 mm 3 m/S 580 mmHg 57%
    05:00 -7°C° 0 mm 3 m/S 580 mmHg 58%
    06:00 -7°C° 0 mm 3 m/S 580 mmHg 59%
    07:00 -6°C° 0 mm 3 m/S 580 mmHg 61%
    08:00 -5°C° 0 mm 3 m/S 581 mmHg 63%
    09:00 -5°C° 0 mm 3 m/S 581 mmHg 65%
    10:00 -4°C° 0 mm 3 m/S 581 mmHg 67%
    11:00 -4°C° 0 mm 3 m/S 581 mmHg 70%
    12:00 -2°C° 0 mm 3 m/S 581 mmHg 72%
    13:00 -4°C° 0.1 mm 3 m/S 581 mmHg 76%
    14:00 -4°C° 0.1 mm 3 m/S 580 mmHg 80%
    15:00 -5°C° 0.1 mm 3 m/S 580 mmHg 84%
    16:00 -6°C° 0 mm 3 m/S 580 mmHg 84%
    17:00 -7°C° 0 mm 3 m/S 579 mmHg 84%
    18:00 -8°C° 0 mm 3 m/S 579 mmHg 84%
    19:00 -8°C° 0 mm 3 m/S 579 mmHg 83%
    20:00 -8°C° 0 mm 3 m/S 579 mmHg 82%
    21:00 -8°C° 0 mm 3 m/S 579 mmHg 82%
    22:00 -8°C° 0 mm 3 m/S 579 mmHg 81%
    23:00 -8°C° 0 mm 3 m/S 579 mmHg 81%
    Mehr zeigen